Creston, IA

7:18 AM CDT on August 30, 2016 (GMT -0500)
Creston Municipal

Weather History for KCSQ - September, 2013

Change the Weather History Date:

Friday, September 27, 2013

  Actual Average Record
Temperature  
Mean Temperature 74 °F -  
Max Temperature 84 °F 72 °F 89 °F (1956)
Min Temperature 64 °F 48 °F 33 °F (1951)
Cooling Degree Days 9    
Growing Degree Days 24 (Base 50)    
Moisture  
Dew Point 62 °F    
Average Humidity 68    
Maximum Humidity 94    
Minimum Humidity 45    
Precipitation  
Precipitation 0.00 in - - ()
Sea Level Pressure  
Sea Level Pressure 29.92 in    
Wind  
Wind Speed 13 mph (SSE)    
Max Wind Speed 23 mph    
Max Gust Speed 32 mph    
Visibility 10 miles    
Events      
Averages and records for this station are not official NWS values.
T = Trace of Precipitation, MM = Missing Value Source: NWS Daily Summary

Daily Weather History Graph

Daily Weather History Graph

Search for Another Location

Airport or City:

Trip Planner

Search our weather history database for the weather conditions in past years. The results will help you decide how hot, cold, wet, or windy it might be!

Date:

Astronomy

Sep. 27, 2013 Rise Set
Actual Time 7:10 AM CDT 7:05 PM CDT
Civil Twilight 6:42 AM CDT 7:33 PM CDT
Nautical Twilight 6:10 AM CDT 8:04 PM CDT
Astronomical Twilight 5:38 AM CDT 8:37 PM CDT
Moon 12:03 AM CDT (9/27) 2:47 PM CDT (9/27)
Length of Visible Light 12h 50m
Length of Day
11h 55m
Last Quarter, 45% of the Moon is Illuminated
Sep 27
Last Quarter
Oct 4
New
Oct 11
First Quarter
Oct 18
Full
Oct 26
Last Quarter

Hourly Weather History & Observations

Time (CDT) Temp. Heat Index Dew Point Humidity Pressure Visibility Wind Dir Wind Speed Gust Speed Precip Events Conditions
12:15 AM 68.0 °F - 62.6 °F 83% 29.94 in 10.0 mi SSE 10.4 mph - N/A   Clear
12:35 AM 68.0 °F - 62.6 °F 83% 29.94 in 10.0 mi SE 9.2 mph - N/A   Clear
12:55 AM 68.0 °F - 62.6 °F 83% 29.94 in 10.0 mi SSE 11.5 mph - N/A   Clear
1:15 AM 68.0 °F - 62.6 °F 83% 29.93 in 10.0 mi SSE 11.5 mph - N/A   Clear
1:35 AM 68.0 °F - 62.6 °F 83% 29.93 in 10.0 mi SSE 12.7 mph - N/A   Clear
1:55 AM 68.0 °F - 62.6 °F 83% 29.94 in 10.0 mi SSE 10.4 mph 17.3 mph N/A   Clear
2:15 AM 68.0 °F - 62.6 °F 83% 29.94 in 10.0 mi SSE 10.4 mph 17.3 mph N/A   Clear
2:35 AM 68.0 °F - 62.6 °F 83% 29.94 in 10.0 mi SSE 11.5 mph 18.4 mph N/A   Partly Cloudy
2:55 AM 68.0 °F - 62.6 °F 83% 29.94 in 10.0 mi SSE 11.5 mph 18.4 mph N/A   Clear
3:15 AM 68.0 °F - 62.6 °F 83% 29.94 in 10.0 mi SSE 12.7 mph - N/A   Clear
3:35 AM 66.2 °F - 62.6 °F 88% 29.94 in 10.0 mi SSE 11.5 mph - N/A   Clear
3:55 AM 66.2 °F - 62.6 °F 88% 29.94 in 10.0 mi SSE 10.4 mph 16.1 mph N/A   Clear
4:15 AM 66.2 °F - 62.6 °F 88% 29.94 in 10.0 mi SSE 11.5 mph - N/A   Clear
4:35 AM 66.2 °F - 62.6 °F 88% 29.94 in 10.0 mi SSE 11.5 mph 17.3 mph N/A   Clear
4:55 AM 66.2 °F - 62.6 °F 88% 29.94 in 10.0 mi SSE 12.7 mph 18.4 mph N/A   Clear
5:15 AM 66.2 °F - 62.6 °F 88% 29.94 in 10.0 mi SSE 10.4 mph 17.3 mph N/A   Clear
5:35 AM 66.2 °F - 62.6 °F 88% 29.94 in 10.0 mi SSE 11.5 mph 17.3 mph N/A   Clear
5:55 AM 66.2 °F - 62.6 °F 88% 29.94 in 10.0 mi SSE 10.4 mph 17.3 mph N/A   Clear
6:15 AM 66.2 °F - 62.6 °F 88% 29.94 in 10.0 mi SSE 10.4 mph - N/A   Clear
6:35 AM 64.4 °F - 62.6 °F 94% 29.95 in 10.0 mi SSE 9.2 mph 16.1 mph N/A   Clear
6:55 AM 64.4 °F - 62.6 °F 94% 29.96 in 10.0 mi SSE 10.4 mph - N/A   Clear
7:15 AM 64.4 °F - 62.6 °F 94% 29.96 in 9.0 mi SSE 11.5 mph 17.3 mph N/A   Clear
7:35 AM 64.4 °F - 62.6 °F 94% 29.96 in 9.0 mi SSE 11.5 mph - N/A   Clear
7:55 AM 64.4 °F - 62.6 °F 94% 29.96 in 9.0 mi SSE 12.7 mph - N/A   Clear
8:15 AM 66.2 °F - 62.6 °F 88% 29.96 in 9.0 mi SSE 12.7 mph 18.4 mph N/A   Clear
8:35 AM 68.0 °F - 62.6 °F 83% 29.96 in 9.0 mi SSE 13.8 mph 20.7 mph N/A   Clear
8:55 AM 69.8 °F - 62.6 °F 78% 29.96 in 9.0 mi SSE 18.4 mph - N/A   Clear
9:15 AM 69.8 °F - 62.6 °F 78% 29.96 in 10.0 mi South 15.0 mph 20.7 mph N/A   Clear
9:35 AM 71.6 °F - 62.6 °F 73% 29.97 in 9.0 mi South 15.0 mph 25.3 mph N/A   Clear
9:55 AM 73.4 °F - 62.6 °F 69% 29.97 in 10.0 mi South 18.4 mph 25.3 mph N/A   Clear
10:15 AM 75.2 °F - 62.6 °F 65% 29.97 in 10.0 mi South 17.3 mph 25.3 mph N/A   Clear
10:35 AM 77.0 °F - 62.6 °F 61% 29.97 in 10.0 mi South 17.3 mph 28.8 mph N/A   Clear
10:55 AM 77.0 °F - 60.8 °F 57% 29.96 in 10.0 mi South 21.9 mph 28.8 mph N/A   Clear
11:15 AM 78.8 °F - 62.6 °F 57% 29.96 in 10.0 mi South 18.4 mph 27.6 mph N/A   Clear
11:35 AM 80.6 °F 81.5 °F 60.8 °F 51% 29.95 in 10.0 mi South 19.6 mph 27.6 mph N/A   Clear
11:55 AM 80.6 °F 81.5 °F 60.8 °F 51% 29.94 in 10.0 mi SSE 18.4 mph 31.1 mph N/A   Clear
12:15 PM 80.6 °F 81.5 °F 60.8 °F 51% 29.94 in 10.0 mi South 20.7 mph 32.2 mph N/A   Clear
12:35 PM 82.4 °F 82.9 °F 60.8 °F 48% 29.93 in 10.0 mi South 23.0 mph 32.2 mph N/A   Clear
12:55 PM 82.4 °F 82.9 °F 60.8 °F 48% 29.93 in 10.0 mi South 17.3 mph 29.9 mph N/A   Light Drizzle
1:15 PM 84.2 °F 84.4 °F 60.8 °F 45% 29.92 in 10.0 mi South 19.6 mph 28.8 mph N/A   Clear
1:35 PM 84.2 °F 84.4 °F 60.8 °F 45% 29.92 in 10.0 mi South 18.4 mph 28.8 mph N/A   Clear
1:55 PM 84.2 °F 84.4 °F 60.8 °F 45% 29.91 in 10.0 mi SSE 16.1 mph 26.5 mph N/A   Clear
2:15 PM 84.2 °F 84.4 °F 60.8 °F 45% 29.90 in 10.0 mi SSE 17.3 mph 28.8 mph N/A   Clear
2:35 PM 84.2 °F 84.4 °F 60.8 °F 45% 29.89 in 10.0 mi SSE 19.6 mph 31.1 mph N/A   Clear
2:55 PM 84.2 °F 84.4 °F 60.8 °F 45% 29.89 in 10.0 mi SSE 21.9 mph 28.8 mph N/A   Clear
3:15 PM 84.2 °F 84.4 °F 60.8 °F 45% 29.89 in 10.0 mi SSE 18.4 mph 27.6 mph N/A   Clear
3:35 PM 84.2 °F 84.4 °F 60.8 °F 45% 29.89 in 10.0 mi South 18.4 mph 27.6 mph N/A   Partly Cloudy
3:55 PM 84.2 °F 84.4 °F 60.8 °F 45% 29.88 in 10.0 mi South 20.7 mph 28.8 mph N/A   Partly Cloudy
4:15 PM 84.2 °F 84.4 °F 60.8 °F 45% 29.88 in 10.0 mi South 19.6 mph 27.6 mph N/A   Partly Cloudy
4:35 PM 84.2 °F 84.4 °F 60.8 °F 45% 29.88 in 10.0 mi South 18.4 mph 31.1 mph N/A   Partly Cloudy
4:55 PM 84.2 °F 84.4 °F 60.8 °F 45% 29.88 in 10.0 mi SSE 18.4 mph 25.3 mph N/A   Partly Cloudy
5:15 PM 82.4 °F 82.9 °F 60.8 °F 48% 29.88 in 10.0 mi SSE 16.1 mph 24.2 mph N/A   Partly Cloudy
5:35 PM 82.4 °F 82.9 °F 60.8 °F 48% 29.88 in 10.0 mi SSE 16.1 mph 24.2 mph N/A   Partly Cloudy
5:55 PM 82.4 °F 82.9 °F 60.8 °F 48% 29.88 in 10.0 mi SSE 17.3 mph 25.3 mph N/A   Clear
6:15 PM 80.6 °F 81.5 °F 60.8 °F 51% 29.88 in 10.0 mi SSE 12.7 mph 24.2 mph N/A   Clear
6:35 PM 78.8 °F - 60.8 °F 54% 29.88 in 10.0 mi SSE 15.0 mph - N/A   Clear
6:55 PM 78.8 °F - 60.8 °F 54% 29.88 in 10.0 mi SSE 13.8 mph - N/A   Clear
7:15 PM 77.0 °F - 60.8 °F 57% 29.88 in 10.0 mi SSE 12.7 mph 18.4 mph N/A   Clear
7:35 PM 75.2 °F - 60.8 °F 61% 29.88 in 10.0 mi SSE 10.4 mph - N/A   Clear
7:55 PM 73.4 °F - 60.8 °F 65% 29.88 in 10.0 mi SE 9.2 mph - N/A   Clear
8:15 PM 73.4 °F - 60.8 °F 65% 29.88 in 10.0 mi SSE 9.2 mph - N/A   Clear
8:35 PM 71.6 °F - 60.8 °F 69% 29.89 in 10.0 mi SE 8.1 mph - N/A   Clear
8:55 PM 71.6 °F - 59.0 °F 64% 29.89 in 10.0 mi SE 10.4 mph - N/A   Clear
9:15 PM 71.6 °F - 60.8 °F 69% 29.89 in 10.0 mi SE 11.5 mph 18.4 mph N/A   Clear
9:35 PM 71.6 °F - 60.8 °F 69% 29.89 in 10.0 mi SSE 11.5 mph 17.3 mph N/A   Clear
9:55 PM 71.6 °F - 60.8 °F 69% 29.90 in 10.0 mi SSE 11.5 mph 17.3 mph N/A   Clear
10:15 PM 71.6 °F - 60.8 °F 69% 29.90 in 10.0 mi SSE 10.4 mph - N/A   Clear
10:35 PM 71.6 °F - 60.8 °F 69% 29.89 in 10.0 mi SSE 11.5 mph 17.3 mph N/A   Clear
10:55 PM 69.8 °F - 60.8 °F 73% 29.88 in - SSE 11.5 mph 18.4 mph N/A   Clear
11:15 PM 69.8 °F - 60.8 °F 73% 29.88 in 10.0 mi SSE 10.4 mph 17.3 mph N/A   Clear
11:35 PM 69.8 °F - 60.8 °F 73% 29.87 in 10.0 mi SSE 11.5 mph 17.3 mph N/A   Clear
11:55 PM 69.8 °F - 60.8 °F 73% 29.87 in 10.0 mi SSE 12.7 mph 19.6 mph N/A   Partly Cloudy